Women Rock - Trail Run presented by Navworld - 7 km - Provisional Results

Important Information

Thank you for participating in this event & well done on your result!!!

Please rate the event and feel free to add a few comments if you wish.


  Use the Ctrl+F keys on your keyboard to search for a first or last name

Race NoNameSurnameGenderBatchTimeOverallGenderAge CatAge PosPaceNTS Index
588Xandervan der merweMaleNOT SET00:36:05.71114 - 19105:09/km0.00
453JohannGrobbelaarMaleNOT SET00:43:07.22240 - 49106:09/km0.00
581liamPrinslooMaleNOT SET00:47:16.03314 - 19206:45/km0.00
1267Megan CesanoFemaleNOT SET00:47:23.641< 13106:45/km0.00
370LynetteUrenFemaleNOT SET00:47:48.95250 - 59106:48/km0.00
1050ElnaMalanFemaleNOT SET00:48:10.563Open106:51/km0.00
1262JacoPotgieterMaleNOT SET00:49:48.674Open107:06/km0.00
1037MarishaFerreiraFemaleNOT SET00:50:04.984Open207:09/km0.00
499CarlaPrinslooFemaleNOT SET00:50:11.095< 13207:09/km0.00
1302EtienneChanguionMaleNOT SET00:50:27.010540 - 49207:12/km0.00
704CarmenPopeFemaleNOT SET00:50:29.1116Open307:12/km0.00
867Dirk CornelisOdendaalMaleNOT SET00:51:18.812640 - 49307:18/km0.00
331DewanLombardMaleNOT SET00:51:20.3137Open207:19/km0.00
457LiezelHARPERFemaleNOT SET00:51:24.9147Open407:19/km0.00
420LouisVan EckMaleNOT SET00:51:46.6158Open307:22/km0.00
316GerritOlivierMaleNOT SET00:52:39.116914 - 19307:30/km0.00
673CharlotteMüllerFemaleNOT SET00:52:59.4178Open507:33/km0.00
690CraigHillMaleNOT SET00:53:09.51810Open407:34/km0.00
455HeloiseWeitszFemaleNOT SET00:53:36.9199Open607:39/km0.00
343LindieVisserFemaleNOT SET00:53:37.22010Open707:39/km0.00
495ChristienWiidFemaleNOT SET00:54:02.3211140 - 49107:42/km0.00
703Frankovan der merweMaleNOT SET00:54:14.6221114 - 19407:43/km0.00
1495CharleneHamlynFemaleNOT SET00:54:30.42312Open807:46/km0.00
521SabeNoethFemaleNOT SET00:54:36.42413Open907:48/km0.00
357Julianvan GreunenMaleNOT SET00:54:38.0251240 - 49407:48/km0.00
663MarlienVan EedenFemaleNOT SET00:54:41.92614Open1007:48/km0.00
1351AmeliaClaassensFemaleNOT SET00:54:45.4271550 - 59207:48/km0.00
792AnelHartzenbergFemaleNOT SET00:54:45.92816Open1107:48/km0.00
513HeidyHarrisFemaleNOT SET00:54:53.0291750 - 59307:49/km0.00
1363LouisClaassensMaleNOT SET00:55:21.2301360 - 69107:54/km0.00
702JenniferCullenFemaleNOT SET00:55:37.93118Open1207:55/km0.00
426Callan SchroederFemaleNOT SET00:55:40.43219Open1307:57/km0.00
449Claire JeanBain VennFemaleNOT SET00:55:44.0332040 - 49207:57/km0.00
321LianaVan der WesthuizenFemaleNOT SET00:55:49.83421Open1407:57/km0.00
575HelinkaHagerFemaleNOT SET00:56:08.43522Open1508:00/km0.00
737DanielaSaulsFemaleNOT SET00:56:08.73623Open1608:00/km0.00
483ErikaDavisFemaleNOT SET00:56:19.23724Open1708:01/km0.00
311Genna-LeeUrenFemaleNOT SET00:56:21.43825Open1808:03/km0.00
604SurjanaShieldsFemaleNOT SET00:56:39.33926Open1908:04/km0.00
415DawnFlierFemaleNOT SET00:57:03.7402750 - 59408:09/km0.00
872LaraWatkinsFemaleNOT SET00:57:34.14128Open2008:12/km0.00
477MargoBeukesFemaleNOT SET00:57:59.14229Open2108:16/km0.00
367Bernicevan der MerweFemaleNOT SET00:58:09.2433040 - 49308:18/km0.00
596JanineSiebritsFemaleNOT SET00:58:37.44431Open2208:21/km0.00
878MarliseWelgensFemaleNOT SET00:58:49.9453240 - 49408:24/km0.00
460MarliLombardFemaleNOT SET01:00:28.84633Open2308:37/km0.00
305LyndelClaassenFemaleNOT SET01:00:30.04734Open2408:37/km0.00
675CarmenMeyerFemaleNOT SET01:00:33.84835Open2508:39/km0.00
748JacquiElsFemaleNOT SET01:00:36.94936Open2608:39/km0.00
1058GabbyCesanoFemaleNOT SET01:00:40.45037< 13308:39/km0.00
451Rache NelNelFemaleNOT SET01:00:41.75138Open2708:39/km0.00
965CadenceCesanoFemaleNOT SET01:00:55.75239< 13408:42/km0.00
539MariaVan der MerweFemaleNOT SET01:01:21.35340Open2808:45/km0.00
733JoanetteCameronFemaleNOT SET01:01:30.8544114 - 19108:46/km0.00
633FathimaAbdulFemaleNOT SET01:01:44.05542Open2908:48/km0.00
1029DanieBesterMaleNOT SET01:02:01.55614Open508:51/km0.00
574TanyaHillFemaleNOT SET01:02:05.55743Open3008:51/km0.00
427Mariannade SmidtFemaleNOT SET01:02:47.35844Open3108:57/km0.00
666NadetteVoogdFemaleNOT SET01:02:52.85945Open3208:57/km0.00
685Jan HendrikGroenewaldMaleNOT SET01:02:59.06015Open608:58/km0.00
411MarietteKrogFemaleNOT SET01:03:25.2614650 - 59509:03/km0.00
679CelesteGebhardFemaleNOT SET01:03:27.26247Open3309:03/km0.00
695Juan-ReGrundlinghMaleNOT SET01:03:30.46316Open709:03/km0.00
782Rourkede LangeMaleNOT SET01:03:42.26417< 13109:06/km0.00
712LeneBadenhorstFemaleNOT SET01:04:07.46548< 13509:09/km0.00
1301Amy PeltzerFemaleNOT SET01:04:10.26649< 13609:09/km0.00
594ToniDos SantosMaleNOT SET01:05:43.3671860 - 69209:22/km0.00
736SamanthaSchoemanFemaleNOT SET01:05:44.66850Open3409:22/km0.00
626Esnade SmidtFemaleNOT SET01:05:47.5695140 - 49509:22/km0.00
613RebeccaSchlebuschFemaleNOT SET01:05:56.07052Open3509:24/km0.00
414Marthie BoshoffFemaleNOT SET01:06:29.87153Open3609:28/km0.00
1355JoneldaSemmelinkFemaleNOT SET01:06:35.37254Open3709:30/km0.00
978CamilleTricoireFemaleNOT SET01:06:52.27355Open3809:33/km0.00
770SanitaWiidFemaleNOT SET01:07:04.57456Open3909:33/km0.00
1059MoniqueHaywordFemaleNOT SET01:07:14.3755740 - 49609:36/km0.00
1053Alida van EckFemaleNOT SET01:07:33.17658Open4009:39/km0.00
864JacoSwanepoelMaleNOT SET01:07:34.67719Open809:39/km0.00
691ChristaEnslinFemaleNOT SET01:07:37.8785940 - 49709:39/km0.00
572JacoBadenhorstMaleNOT SET01:08:00.17920< 13209:42/km0.00
627MelissaMooreFemaleNOT SET01:08:18.88060Open4109:45/km0.00
471GillianKlompFemaleNOT SET01:08:21.18161Open4209:45/km0.00
984Désirée de Villiers FemaleNOT SET01:09:10.88262Open4309:51/km0.00
757TanyaWestFemaleNOT SET01:09:22.98363Open4409:54/km0.00
1348LezandraGrundlinghFemaleNOT SET01:10:19.68464Open4510:01/km0.00
629SiziweNgewabeFemaleNOT SET01:10:34.9856540 - 49810:03/km0.00
1060CarloCesanoMaleNOT SET01:11:03.6862140 - 49510:09/km0.00
386Erica BronkhorstFemaleNOT SET01:11:50.0876640 - 49910:15/km0.00
302Anneri le RouxFemaleNOT SET01:11:57.98867Open4610:15/km0.00
612AnikaScholtzFemaleNOT SET01:12:03.38968Open4710:16/km0.00
568LizellePotgieterFemaleNOT SET01:12:16.39069Open4810:18/km0.00
622GwenPotgieterFemaleNOT SET01:12:17.6917050 - 59610:18/km0.00
376NadineBoshoffFemaleNOT SET01:12:21.09271Open4910:19/km0.00
387DirkOlivierMaleNOT SET01:13:29.6932250 - 59110:28/km0.00
799DeidrePrinslooFemaleNOT SET01:14:16.2947240 - 491010:36/km0.00
1015Tanya FourieFemaleNOT SET01:14:16.49573Open5010:36/km0.00
795Ronel ROBINSONFemaleNOT SET01:14:19.1967440 - 491110:36/km0.00
1344ADRIDIRKERFemaleNOT SET01:14:20.59775Open5110:36/km0.00
1265CarolSadieFemaleNOT SET01:14:49.3987650 - 59710:40/km0.00
714LizellePauwFemaleNOT SET01:14:58.9997740 - 491210:42/km0.00
571StefenieMarxFemaleNOT SET01:15:13.610078Open5210:43/km0.00
822Janet VivienneMeyerFemaleNOT SET01:16:28.61017950 - 59810:54/km0.00
1347LorienWiidFemaleNOT SET01:16:35.510280Open5310:55/km0.00
1246JacorienGoussFemaleNOT SET01:16:36.210381Open5410:55/km0.00
755Yvettede LangeFemaleNOT SET01:16:48.41048240 - 491310:57/km0.00
583ReneePeltzerFemaleNOT SET01:17:02.61058340 - 491411:00/km0.00
649TaniaElsFemaleNOT SET01:17:04.61068440 - 491511:00/km0.00
470JudyVan NiekerkFemaleNOT SET01:17:12.91078540 - 491611:00/km0.00
1387ElizabethArcherFemaleNOT SET01:17:14.910886Open5511:01/km0.00
582LizaBothaFemaleNOT SET01:17:15.01098740 - 491711:01/km0.00
749CatherineGovenderFemaleNOT SET01:17:19.511088Open5611:01/km0.00
1034AntoinetteCantFemaleNOT SET01:17:26.811189Open5711:03/km0.00
729CharlottaSteynFemaleNOT SET01:18:40.21129050 - 59911:13/km0.00
418JacquesSteynMaleNOT SET01:18:40.41132360 - 69311:13/km0.00
417TanyaOelofseFemaleNOT SET01:18:54.311491Open5811:15/km0.00
479FransDe VosMaleNOT SET01:19:13.411524Open911:18/km0.00
683Yolande VisagieFemaleNOT SET01:19:17.711692Open5911:18/km0.00
786NtombiMgidiFemaleNOT SET01:19:36.711793Open6011:21/km0.00
756maritzaprozeskyFemaleNOT SET01:19:58.111894Open6111:24/km0.00
464NATALIEMINNAARFemaleNOT SET01:20:35.81199550 - 591011:30/km0.00
652ELIZABETHMCLEODFemaleNOT SET01:20:55.51209650 - 591111:33/km0.00
1346WandaCopnradieFemaleNOT SET01:21:14.11219750 - 591211:36/km0.00
678RonelScribanteFemaleNOT SET01:21:16.51229860 - 69111:36/km0.00
438MadeleineHoffmannFemaleNOT SET01:21:49.21239940 - 491811:40/km0.00
379MariaHoffmannFemaleNOT SET01:21:51.312410014 - 19211:40/km0.00
447Elizabethde LangeFemaleNOT SET01:22:10.512510140 - 491911:43/km0.00
734BulelwaMadekurozwaFemaleNOT SET01:23:57.012610240 - 492011:58/km0.00
732Mary CatherineMadekurozwaFemaleNOT SET01:23:59.612710340 - 492111:58/km0.00
1375TereenaO'ConnorFemaleNOT SET01:24:06.8128104Open6212:00/km0.00
1255MarkBeranMaleNOT SET01:24:09.112925Open1012:00/km0.00
590DiahannStalbaumFemaleNOT SET01:25:12.6130105Open6312:09/km0.00
556CharlDiedericksMaleNOT SET01:25:16.21312640 - 49612:09/km0.00
488karenkellermanFemaleNOT SET01:25:30.313210650 - 591312:12/km0.00
498Anje KellermanFemaleNOT SET01:25:31.9133107Open6412:12/km0.00
751CeliaNagelFemaleNOT SET01:26:09.9134108Open6512:18/km0.00
677Nicoledu PlessisFemaleNOT SET01:26:11.8135109Open6612:18/km0.00
1259MithaCilliersFemaleNOT SET01:27:18.6136110Open6712:27/km0.00
1303HopeLangeFemaleNOT SET01:27:24.113711140 - 492212:28/km0.00
1497lizaBadenhorstFemaleNOT SET01:28:45.713811240 - 492312:39/km0.00
619Adolph Krige MaleNOT SET01:29:34.613927Open1112:46/km0.00
797ChrisneEnslinFemaleNOT SET01:29:42.2140113< 13712:48/km0.00
567HendreEnslinMaleNOT SET01:29:43.514128< 13312:48/km0.00
686GayleSmithFemaleNOT SET01:30:21.6142114Open6812:54/km0.00
328LynetteMareFemaleNOT SET01:30:25.214311550 - 591412:54/km0.00
768chantalwoodingFemaleNOT SET01:31:02.3144116Open6913:00/km0.00
1256MarianaValentinFemaleNOT SET01:31:16.814511740 - 492413:01/km0.00
742MARLENEKRUGELFemaleNOT SET01:31:22.314611840 - 492513:03/km0.00
1252DevakshaMaharajFemaleNOT SET01:31:46.9147119Open7013:06/km0.00
419Margotvan SchoorFemaleNOT SET01:32:00.814812060 - 69213:07/km0.00
743JessicaFaberFemaleNOT SET01:32:26.0149121Open7113:12/km0.00
759KathrynCunnarFemaleNOT SET01:32:28.1150122Open7213:12/km0.00
655MELINDAMCLEODFemaleNOT SET01:32:32.9151123Open7313:12/km0.00
662KYLEMCHUGHMaleNOT SET01:32:37.215229Open1213:12/km0.00
752KarinGroblerFemaleNOT SET01:33:36.3153124Open7413:21/km0.00
1361Deon GroblerMaleNOT SET01:33:39.315430Open1313:21/km0.00
818KobusVisserMaleNOT SET01:34:16.31553160 - 69413:27/km0.00
352ChristiaanPutterMaleNOT SET01:35:10.215632Open1413:34/km0.00
706CheneBrinkFemaleNOT SET01:35:13.1157125Open7513:36/km0.00
656SunetSnymanFemaleNOT SET01:35:57.0158126Open7613:42/km0.00
1373SusanSnymanFemaleNOT SET01:36:02.315912760 - 69313:42/km0.00
661NellieBadenhorstFemaleNOT SET01:36:11.8160128Open7713:43/km0.00
527AllisonBragattoFemaleNOT SET01:37:51.5161129Open7813:57/km0.00
341MichelleFortuinFemaleNOT SET01:37:55.1162130Open7913:58/km0.00
625Ella H van Zyl FerreiraFemaleNOT SET01:38:36.116313140 - 492614:04/km0.00
796Erika FerreiraFemaleNOT SET01:39:35.3164132Open8014:12/km0.00
671ChristianoFerreira MaleNOT SET01:39:37.216533< 13414:12/km0.00
682AdolfprinslooMaleNOT SET01:39:50.216634Open1514:15/km0.00
798xander schoemanMaleNOT SET01:39:50.41673540 - 49714:15/km0.00
791WesselVan WykMaleNOT SET01:39:51.416836Open1614:15/km0.00
1494Ria VisserFemaleNOT SET01:41:25.116913350 - 591514:28/km0.00
308Rihanda CesanoFemaleNOT SET01:41:29.4170134Open8114:28/km0.00
484PhillisMasiavhula FemaleNOT SET01:41:41.217113540 - 492714:30/km0.00
398AleksandrSikMaleNOT SET01:41:49.41723740 - 49814:31/km0.00
720MariciaFronemanFemaleNOT SET01:41:52.517313640 - 492814:33/km0.00
359Vanessade VilliersFemaleNOT SET01:42:05.417413750 - 591614:34/km0.00
772ZawadiMarizaniFemaleNOT SET01:43:23.017513840 - 492914:45/km0.00
698KirstenStegmannFemaleNOT SET01:44:09.4176139Open8214:51/km0.00
587Tanya MattstadtKrugerFemaleNOT SET01:45:16.4177140Open8315:01/km0.00
859Melisa BarnardFemaleNOT SET01:45:18.9178141Open8415:01/km0.00
672natashavan wykFemaleNOT SET01:45:40.6179142Open8515:04/km0.00
700marleprinslooFemaleNOT SET01:45:45.0180143Open8615:06/km0.00
1247LeonikaSmalmanFemaleNOT SET01:45:47.5181144Open8715:06/km0.00
710Gilbert PeretMaleNOT SET01:45:51.718238Open1715:06/km0.00
593MarisaViljoenFemaleNOT SET01:46:29.2183145Open8815:12/km0.00
559Marlys StoreFemaleNOT SET01:46:33.618414660 - 69415:12/km0.00
548KathyBeckerFemaleNOT SET01:49:06.718514750 - 591715:34/km0.00
317Marcia ManningFemaleNOT SET01:52:19.818614840 - 493016:01/km0.00
771RelebogileRamalepaFemaleNOT SET01:56:01.4187149Open8916:33/km0.00
658TsholofeloRamafokoFemaleNOT SET01:56:05.6188150Open9016:34/km0.00
347AdeleBirdFemaleNOT SET01:58:45.918915140 - 493116:57/km0.00
408Chantal BarkhuizenFemaleNOT SET01:58:57.519015250 - 591816:58/km0.00
1250AnnetteBoshoffFemaleNOT SET02:12:28.419115350 - 591918:54/km0.00